Chippewa, MI

9:59 PM EDT on March 28, 2017 (GMT -0400)
Chippewa County International

Weather History for KCIU - January, 2014

Change the Weather History Date:

Tuesday, January 28, 2014

  Actual Average Record
Temperature  
Mean Temperature -3 °F -  
Max Temperature 5 °F 25 °F 46 °F (2009)
Min Temperature -11 °F 2 °F -11 °F (2014)
Degree Days  
Heating Degree Days 68    
Moisture  
Dew Point -8 °F    
Average Humidity 80    
Maximum Humidity 92    
Minimum Humidity 56    
Precipitation  
Precipitation 0.00 in - - ()
Sea Level Pressure  
Sea Level Pressure 29.94 in    
Wind  
Wind Speed 11 mph (WSW)    
Max Wind Speed 17 mph    
Max Gust Speed 24 mph    
Visibility 9 miles    
Events      
Averages and records for this station are not official NWS values.
T = Trace of Precipitation, MM = Missing Value Source: NWS Daily Summary

Daily Weather History Graph

Daily Weather History Graph

Search for Another Location

Airport or City:

Trip Planner

Search our weather history database for the weather conditions in past years. The results will help you decide how hot, cold, wet, or windy it might be!

Date:

Astronomy

Jan. 28, 2014 Rise Set
Actual Time 8:05 AM EST 5:36 PM EST
Civil Twilight 7:33 AM EST 6:09 PM EST
Nautical Twilight 6:56 AM EST 6:45 PM EST
Astronomical Twilight 6:21 AM EST 7:20 PM EST
Moon 5:48 AM EST (1/28) 3:23 PM EST (1/28)
Length of Visible Light 10h 36m
Length of Day
9h 31m
Waning Crescent, 7% of the Moon is Illuminated
Jan 28
Waning Crescent
Jan 30
New
Feb 6
First Quarter
Feb 14
Full
Feb 22
Last Quarter

Hourly Weather History & Observations

Time (EST) Temp. Windchill Dew Point Humidity Pressure Visibility Wind Dir Wind Speed Gust Speed Precip Events Conditions
12:15 AM -7.6 °F -29.1 °F -9.4 °F 92% 29.99 in 9.0 mi WSW 15.0 mph 20.7 mph N/A   Clear
12:35 AM -7.6 °F -27.5 °F -9.4 °F 92% 29.99 in 10.0 mi WSW 12.7 mph 20.7 mph N/A   Clear
12:55 AM -7.6 °F -24.6 °F -11.2 °F 84% 30.00 in 10.0 mi WSW 9.2 mph 18.4 mph N/A   Clear
1:15 AM -7.6 °F -25.7 °F -11.2 °F 84% 30.00 in 10.0 mi WSW 10.4 mph 16.1 mph N/A   Clear
1:35 AM -7.6 °F -26.6 °F -11.2 °F 84% 30.01 in 10.0 mi WSW 11.5 mph 17.3 mph N/A   Clear
1:55 AM -7.6 °F -26.6 °F -11.2 °F 84% 30.01 in 10.0 mi WSW 11.5 mph 16.1 mph N/A   Clear
2:15 AM -7.6 °F -27.5 °F -11.2 °F 84% 30.01 in 10.0 mi WSW 12.7 mph 17.3 mph N/A   Clear
2:35 AM -7.6 °F -25.7 °F -11.2 °F 84% 30.01 in 10.0 mi WSW 10.4 mph 16.1 mph N/A   Clear
2:55 AM -7.6 °F -27.5 °F -11.2 °F 84% 30.01 in 10.0 mi WSW 12.7 mph 17.3 mph N/A   Clear
3:15 AM -7.6 °F -26.6 °F -11.2 °F 84% 30.02 in 10.0 mi WSW 11.5 mph 17.3 mph N/A   Clear
3:35 AM -9.4 °F -28.9 °F -11.2 °F 92% 30.01 in 10.0 mi WSW 11.5 mph 16.1 mph N/A   Clear
3:55 AM -9.4 °F -29.8 °F -13.0 °F 84% 30.01 in 10.0 mi WSW 12.7 mph - N/A   Clear
4:15 AM -9.4 °F -29.8 °F -13.0 °F 84% 30.00 in 10.0 mi WSW 12.7 mph - N/A   Clear
4:35 AM -9.4 °F -28.9 °F -14.8 °F 77% 30.01 in 10.0 mi WSW 11.5 mph 19.6 mph N/A   Clear
4:55 AM -9.4 °F -26.8 °F -14.8 °F 77% 30.01 in 10.0 mi WSW 9.2 mph 16.1 mph N/A   Clear
5:15 AM -11.2 °F -29.0 °F -14.8 °F 84% 30.01 in 10.0 mi WSW 9.2 mph - N/A   Clear
5:35 AM -11.2 °F -27.8 °F -14.8 °F 84% 30.01 in 10.0 mi WSW 8.1 mph - N/A   Clear
5:55 AM -11.2 °F -27.8 °F -14.8 °F 84% 30.00 in 10.0 mi WSW 8.1 mph - N/A   Clear
6:15 AM -11.2 °F -27.8 °F -14.8 °F 84% 30.00 in 10.0 mi WSW 8.1 mph - N/A   Clear
6:35 AM -11.2 °F -27.8 °F -14.8 °F 84% 29.99 in 10.0 mi SW 8.1 mph - N/A   Clear
6:55 AM -11.2 °F -27.8 °F -14.8 °F 84% 30.00 in 10.0 mi SW 8.1 mph - N/A   Clear
7:15 AM -11.2 °F -29.0 °F -14.8 °F 84% 29.99 in 10.0 mi WSW 9.2 mph 16.1 mph N/A   Clear
7:35 AM -11.2 °F -24.8 °F -14.8 °F 84% 30.00 in 10.0 mi SW 5.8 mph - N/A   Clear
7:55 AM -11.2 °F -26.4 °F -14.8 °F 84% 30.00 in 10.0 mi SSW 6.9 mph - N/A   Clear
8:15 AM -11.2 °F -26.4 °F -14.8 °F 84% 30.00 in 10.0 mi SW 6.9 mph - N/A   Clear
8:35 AM -9.4 °F -25.6 °F -13.0 °F 84% 30.01 in 10.0 mi SW 8.1 mph - N/A   Clear
8:55 AM -7.6 °F -26.6 °F -11.2 °F 84% 30.01 in 10.0 mi WSW 11.5 mph 16.1 mph N/A   Clear
9:15 AM -7.6 °F -25.7 °F -11.2 °F 84% 30.02 in 10.0 mi WSW 10.4 mph 17.3 mph N/A   Clear
9:35 AM -5.8 °F -24.4 °F -11.2 °F 77% 30.02 in 10.0 mi WSW 11.5 mph - N/A   Clear
9:55 AM -5.8 °F -21.2 °F -11.2 °F 77% 30.02 in 10.0 mi WSW 8.1 mph - N/A   Clear
10:15 AM -4.0 °F -20.2 °F -11.2 °F 71% 30.02 in 10.0 mi SW 9.2 mph - N/A   Clear
10:35 AM -2.2 °F -19.9 °F -11.2 °F 66% 30.03 in 10.0 mi SW 11.5 mph 17.3 mph N/A   Clear
10:55 AM -2.2 °F -18.9 °F -9.4 °F 71% 30.02 in 10.0 mi WSW 10.4 mph 16.1 mph N/A   Clear
11:15 AM -0.4 °F -15.7 °F -9.4 °F 66% 30.02 in 10.0 mi SW 9.2 mph 17.3 mph N/A   Clear
11:35 AM 1.4 °F -15.3 °F -9.4 °F 61% 30.01 in 10.0 mi WSW 11.5 mph - N/A   Clear
11:55 AM 1.4 °F -15.3 °F -9.4 °F 61% 30.01 in 10.0 mi WSW 11.5 mph 17.3 mph N/A   Clear
12:15 PM 1.4 °F -16.1 °F -7.6 °F 66% 30.00 in 10.0 mi WSW 12.7 mph 18.4 mph N/A   Clear
12:35 PM 3.2 °F -12.2 °F -7.6 °F 61% 29.98 in 9.0 mi WSW 10.4 mph 24.2 mph N/A   Clear
12:55 PM 3.2 °F -15.3 °F -7.6 °F 61% 29.97 in 10.0 mi SW 15.0 mph 21.9 mph N/A   Clear
1:15 PM 3.2 °F -11.3 °F -7.6 °F 61% 29.96 in 10.0 mi SW 9.2 mph 23.0 mph N/A   Clear
1:35 PM 3.2 °F -16.5 °F -7.6 °F 61% 29.95 in 7.0 mi WSW 17.3 mph - N/A   Clear
1:55 PM 3.2 °F -12.2 °F -7.6 °F 61% 29.94 in 10.0 mi WSW 10.4 mph 21.9 mph N/A   Clear
2:15 PM 5.0 °F -9.1 °F -7.6 °F 56% 29.93 in 10.0 mi SW 9.2 mph 19.6 mph N/A   Clear
2:35 PM 5.0 °F -9.1 °F -7.6 °F 56% 29.92 in 10.0 mi WSW 9.2 mph 18.4 mph N/A   Clear
2:55 PM 5.0 °F -13.0 °F -5.8 °F 61% 29.91 in 9.0 mi WSW 15.0 mph 23.0 mph N/A   Clear
3:15 PM 3.2 °F -15.9 °F -4.0 °F 72% 29.91 in 7.0 mi WSW 16.1 mph 23.0 mph N/A   Clear
3:35 PM 3.2 °F -14.6 °F -4.0 °F 72% 29.91 in 10.0 mi SW 13.8 mph 19.6 mph N/A   Clear
3:55 PM 3.2 °F -13.9 °F -2.2 °F 78% 29.90 in 10.0 mi SW 12.7 mph 19.6 mph N/A   Clear
4:15 PM 3.2 °F -12.2 °F -2.2 °F 78% 29.90 in 10.0 mi SW 10.4 mph 19.6 mph N/A   Clear
4:35 PM 3.2 °F -13.1 °F -4.0 °F 72% 29.90 in 10.0 mi SW 11.5 mph 21.9 mph N/A   Clear
4:55 PM 1.4 °F -16.1 °F -5.8 °F 72% 29.89 in 10.0 mi WSW 12.7 mph 19.6 mph N/A   Partly Cloudy
5:15 PM 1.4 °F -13.5 °F -5.8 °F 72% 29.90 in 10.0 mi WSW 9.2 mph 19.6 mph N/A   Partly Cloudy
5:35 PM -0.4 °F -18.4 °F -4.0 °F 85% 29.89 in 10.0 mi WSW 12.7 mph 17.3 mph N/A   Partly Cloudy
5:55 PM -0.4 °F -16.7 °F -4.0 °F 85% 29.89 in 10.0 mi WSW 10.4 mph 18.4 mph N/A   Partly Cloudy
6:15 PM -0.4 °F -15.7 °F -4.0 °F 85% 29.88 in 10.0 mi WSW 9.2 mph 16.1 mph N/A   Mostly Cloudy
6:35 PM -0.4 °F -12.0 °F -4.0 °F 85% 29.87 in 10.0 mi SW 5.8 mph - N/A   Overcast
6:55 PM -0.4 °F -13.4 °F -2.2 °F 92% 29.86 in 10.0 mi WSW 6.9 mph - N/A   Overcast
7:15 PM -0.4 °F -13.4 °F -2.2 °F 92% 29.86 in 10.0 mi SW 6.9 mph - N/A   Overcast
7:35 PM 1.4 °F -13.5 °F -2.2 °F 85% 29.85 in 4.0 mi WSW 9.2 mph - N/A   Overcast
7:55 PM 1.4 °F -15.3 °F -2.2 °F 85% 29.85 in 5.0 mi WSW 11.5 mph 17.3 mph N/A   Overcast
8:15 PM 1.4 °F -11.3 °F -0.4 °F 92% 29.84 in 3.0 mi WSW 6.9 mph - N/A   Overcast
8:35 PM 1.4 °F -11.3 °F -0.4 °F 92% 29.82 in 3.0 mi WSW 6.9 mph - N/A   Overcast
8:55 PM 1.4 °F -13.5 °F -0.4 °F 92% 29.82 in 2.5 mi WSW 9.2 mph - N/A   Overcast
9:15 PM 3.2 °F -12.2 °F 1.4 °F 92% 29.81 in 2.5 mi WSW 10.4 mph 16.1 mph N/A   Overcast
9:35 PM 3.2 °F -12.2 °F 1.4 °F 92% 29.81 in 2.5 mi WSW 10.4 mph - N/A   Overcast
9:55 PM 3.2 °F -14.6 °F 1.4 °F 92% 29.80 in 3.0 mi WSW 13.8 mph 17.3 mph N/A   Overcast
10:15 PM 3.2 °F -16.5 °F 1.4 °F 92% 29.79 in 3.0 mi WSW 17.3 mph 24.2 mph N/A   Overcast
10:35 PM 3.2 °F -14.6 °F -0.4 °F 85% 29.79 in 7.0 mi WSW 13.8 mph 24.2 mph N/A   Mostly Cloudy
10:55 PM 3.2 °F -15.3 °F -0.4 °F 85% 29.78 in 2.0 mi WSW 15.0 mph 21.9 mph N/A   Overcast
11:15 PM 3.2 °F -11.3 °F -0.4 °F 85% 29.78 in 2.5 mi WSW 9.2 mph 20.7 mph N/A   Overcast
11:35 PM 3.2 °F -13.9 °F -0.4 °F 85% 29.78 in 5.0 mi WSW 12.7 mph 19.6 mph N/A   Overcast
11:55 PM 3.2 °F -14.6 °F -2.2 °F 78% 29.78 in 6.0 mi WSW 13.8 mph 24.2 mph N/A   Overcast